Weather History for KCVX - July, 2013

Change the Weather History Date:

Sunday, July 28, 2013

  Actual Average Record
Temperature  
Mean Temperature 58 °F -  
Max Temperature 63 °F 80 °F 85 °F (2015)
Min Temperature 54 °F 62 °F 51 °F (2003)
Degree Days  
Heating Degree Days 6    
Growing Degree Days 8 (Base 50)    
Moisture  
Dew Point 53 °F    
Average Humidity 86    
Maximum Humidity 100    
Minimum Humidity 65    
Precipitation  
Precipitation 0.00 in - - ()
Sea Level Pressure  
Sea Level Pressure 29.83 in    
Wind  
Wind Speed 8 mph (West)    
Max Wind Speed 16 mph    
Max Gust Speed 24 mph    
Visibility 9 miles    
Events Rain    
Averages and records for this station are not official NWS values.
T = Trace of Precipitation, MM = Missing Value Source: NWS Daily Summary

Daily Weather History Graph

Daily Weather History Graph

Search for Another Location

Airport or City:

Trip Planner

Search our weather history database for the weather conditions in past years. The results will help you decide how hot, cold, wet, or windy it might be!

Date:

Astronomy

Jul. 28, 2013 Rise Set
Actual Time 6:21 AM EDT 9:13 PM EDT
Civil Twilight 5:46 AM EDT 9:47 PM EDT
Nautical Twilight 5:02 AM EDT 10:31 PM EDT
Astronomical Twilight 4:10 AM EDT 11:22 PM EDT
Moon No Moon Rise 1:25 PM EDT (7/28)
Length of Visible Light 16h 00m
Length of Day
14h 51m
Waning Gibbous, 61% of the Moon is Illuminated
Jul 28
Waning Gibbous
Jul 29
Last Quarter
Aug 6
New
Aug 14
First Quarter
Aug 20
Full

Hourly Weather History & Observations

Time (EDT) Temp. Dew Point Humidity Pressure Visibility Wind Dir Wind Speed Gust Speed Precip Events Conditions
12:15 AM 58.1 °F 50.2 °F 75% 29.82 in 10.0 mi West 11.5 mph - N/A   Overcast
12:34 AM 58.1 °F 50.9 °F 77% 29.81 in 10.0 mi West 9.2 mph - N/A   Overcast
12:55 AM 58.1 °F 51.8 °F 80% 29.81 in 10.0 mi West 8.1 mph - N/A   Overcast
1:15 AM 58.3 °F 51.6 °F 78% 29.81 in 10.0 mi West 6.9 mph - N/A   Overcast
1:34 AM 58.3 °F 51.6 °F 78% 29.80 in 10.0 mi West 6.9 mph - N/A   Overcast
1:55 AM 58.1 °F 53.4 °F 84% 29.80 in 10.0 mi Calm Calm - N/A Rain Light Rain
2:15 AM 56.7 °F 55.4 °F 96% 29.80 in 7.0 mi West 4.6 mph - N/A Rain Rain
2:35 AM 55.9 °F 54.9 °F 96% 29.79 in 4.0 mi NNW 4.6 mph - N/A Rain Heavy Rain
2:55 AM 55.6 °F 54.9 °F 97% 29.79 in 7.0 mi NW 4.6 mph - N/A Rain Rain
3:14 AM 55.6 °F 54.3 °F 96% 29.79 in 7.0 mi NW 4.6 mph - N/A   Light Drizzle
3:35 AM 55.4 °F 54.0 °F 95% 29.79 in 10.0 mi NW 4.6 mph - N/A   Overcast
3:55 AM 54.9 °F 52.7 °F 92% 29.78 in 10.0 mi NW 5.8 mph - N/A   Overcast
4:15 AM 55.4 °F 52.7 °F 91% 29.78 in 10.0 mi NW 5.8 mph - N/A   Overcast
4:35 AM 56.1 °F 53.1 °F 89% 29.78 in 10.0 mi NNW 6.9 mph - N/A   Overcast
4:55 AM 56.5 °F 53.6 °F 90% 29.78 in 10.0 mi NW 5.8 mph - N/A   Overcast
5:15 AM 56.3 °F 53.2 °F 89% 29.77 in 10.0 mi WNW 8.1 mph - N/A   Overcast
5:35 AM 55.9 °F 53.1 °F 90% 29.77 in 10.0 mi NW 6.9 mph - N/A   Overcast
5:55 AM 55.6 °F 52.2 °F 88% 29.78 in 10.0 mi NW 6.9 mph - N/A   Overcast
6:15 AM 55.0 °F 50.7 °F 85% 29.78 in 10.0 mi WNW 5.8 mph - N/A   Mostly Cloudy
6:35 AM 55.2 °F 51.4 °F 87% 29.79 in 10.0 mi NW 6.9 mph - N/A   Mostly Cloudy
6:54 AM 55.4 °F 51.8 °F 88% 29.79 in 10.0 mi NW 5.8 mph - N/A   Overcast
7:15 AM 55.6 °F 52.0 °F 88% 29.80 in 10.0 mi NW 5.8 mph - N/A   Overcast
7:35 AM 55.8 °F 52.2 °F 88% 29.80 in 10.0 mi NW 4.6 mph - N/A   Overcast
7:54 AM 56.3 °F 52.0 °F 85% 29.80 in 10.0 mi WNW 4.6 mph - N/A   Overcast
8:15 AM 56.7 °F 52.3 °F 85% 29.80 in 10.0 mi WNW 6.9 mph - N/A   Overcast
8:35 AM 57.2 °F 52.3 °F 84% 29.80 in 10.0 mi West 9.2 mph - N/A   Overcast
8:55 AM 57.2 °F 52.0 °F 83% 29.80 in 10.0 mi WSW 5.8 mph - N/A   Mostly Cloudy
9:15 AM 58.3 °F 52.3 °F 81% 29.80 in 10.0 mi WSW 8.1 mph - N/A   Mostly Cloudy
9:35 AM 59.0 °F 51.6 °F 76% 29.81 in 10.0 mi West 8.1 mph - N/A   Mostly Cloudy
9:55 AM 58.3 °F 51.3 °F 77% 29.81 in 10.0 mi West 8.1 mph - N/A   Mostly Cloudy
10:15 AM 60.4 °F 52.7 °F 76% 29.81 in 10.0 mi West 10.4 mph - N/A   Mostly Cloudy
10:35 AM 58.6 °F 51.1 °F 76% 29.81 in 10.0 mi WSW 9.2 mph - N/A   Mostly Cloudy
10:55 AM 59.0 °F 50.5 °F 73% 29.81 in 10.0 mi West 8.1 mph - N/A   Mostly Cloudy
11:15 AM 59.2 °F 51.4 °F 75% 29.82 in 10.0 mi WSW 8.1 mph - N/A   Overcast
11:34 AM 59.2 °F 51.6 °F 76% 29.82 in 10.0 mi West 13.8 mph 17.3 mph N/A   Overcast
11:55 AM 59.5 °F 52.5 °F 78% 29.82 in 10.0 mi WSW 8.1 mph - N/A   Overcast
12:15 PM 60.3 °F 52.0 °F 74% 29.83 in 10.0 mi WSW 10.4 mph - N/A   Overcast
12:34 PM 60.1 °F 52.0 °F 75% 29.83 in 10.0 mi West 12.7 mph 18.4 mph N/A   Overcast
12:55 PM 59.9 °F 52.2 °F 76% 29.83 in 10.0 mi WSW 12.7 mph - N/A   Overcast
1:14 PM 61.0 °F 52.5 °F 74% 29.83 in 10.0 mi West 15.0 mph - N/A   Overcast
1:35 PM 61.0 °F 52.2 °F 73% 29.83 in 10.0 mi WSW 10.4 mph - N/A   Overcast
1:55 PM 61.9 °F 51.8 °F 69% 29.83 in 10.0 mi WSW 13.8 mph 23.0 mph N/A   Mostly Cloudy
2:14 PM 61.7 °F 51.3 °F 69% 29.83 in 10.0 mi SW 11.5 mph - N/A   Mostly Cloudy
2:35 PM 63.0 °F 52.2 °F 68% 29.83 in 10.0 mi WSW 13.8 mph 24.2 mph N/A   Mostly Cloudy
2:55 PM 62.8 °F 50.9 °F 65% 29.83 in 10.0 mi WSW 15.0 mph - N/A   Mostly Cloudy
3:14 PM 61.7 °F 51.8 °F 70% 29.84 in 10.0 mi SW 12.7 mph 17.3 mph N/A   Overcast
3:35 PM 61.7 °F 51.8 °F 70% 29.84 in 10.0 mi WSW 12.7 mph - N/A   Overcast
3:55 PM 62.4 °F 52.5 °F 70% 29.85 in 10.0 mi WSW 16.1 mph - N/A   Overcast
4:15 PM 60.8 °F 52.5 °F 74% 29.86 in 10.0 mi SW 11.5 mph - N/A   Overcast
4:35 PM 58.1 °F 53.1 °F 83% 29.87 in 7.0 mi SW 6.9 mph - N/A Rain Light Rain
4:54 PM 58.5 °F 54.3 °F 86% 29.87 in 7.0 mi SW 11.5 mph - N/A Rain Rain
5:15 PM 57.0 °F 55.6 °F 95% 29.87 in 10.0 mi SSW 8.1 mph - N/A   Overcast
5:35 PM 57.2 °F 55.9 °F 96% 29.87 in 4.0 mi SSW 8.1 mph - N/A   Drizzle
5:55 PM 57.4 °F 56.7 °F 97% 29.87 in 5.0 mi SW 8.1 mph - N/A Rain Rain
6:15 PM 58.1 °F 57.0 °F 96% 29.87 in 4.0 mi SW 6.9 mph - N/A Rain Rain
6:35 PM 57.2 °F 56.3 °F 97% 29.88 in 2.5 mi SW 6.9 mph - N/A Rain Rain
6:55 PM 57.4 °F 56.7 °F 97% 29.88 in 10.0 mi SSW 6.9 mph - N/A   Overcast
7:15 PM 57.4 °F 56.8 °F 98% 29.88 in 7.0 mi SSW 8.1 mph - N/A   Overcast
7:35 PM 57.0 °F 56.7 °F 99% 29.88 in 4.0 mi SSW 4.6 mph - N/A Rain Light Rain
7:55 PM 56.8 °F 56.5 °F 99% 29.88 in 10.0 mi South 3.5 mph - N/A   Overcast
8:15 PM 57.2 °F 56.7 °F 98% 29.89 in 10.0 mi South 3.5 mph - N/A   Overcast
8:35 PM 56.8 °F 56.5 °F 99% 29.89 in 10.0 mi South 3.5 mph - N/A   Overcast
8:55 PM 56.7 °F 56.3 °F 99% 29.89 in 10.0 mi Calm Calm - N/A   Overcast
9:14 PM 56.5 °F 56.3 °F 99% 29.89 in 10.0 mi Calm Calm - N/A   Overcast
9:35 PM 56.3 °F 55.8 °F 98% 29.89 in 10.0 mi Calm Calm - N/A   Overcast
9:55 PM 56.3 °F 55.8 °F 98% 29.90 in 4.0 mi SW 4.6 mph - N/A Rain Rain
10:15 PM 55.9 °F 55.8 °F 99% 29.91 in 4.0 mi West 4.6 mph - N/A Rain Heavy Rain
10:35 PM 55.6 °F 55.6 °F 100% 29.92 in 5.0 mi Calm Calm - N/A Rain Heavy Rain
10:55 PM 56.3 °F 56.3 °F 100% 29.92 in 4.0 mi Calm Calm - N/A   Light Drizzle
11:15 PM 55.8 °F 55.6 °F 99% 29.92 in 10.0 mi Calm Calm - N/A   Overcast
11:35 PM 55.6 °F 55.4 °F 99% 29.92 in 10.0 mi Calm Calm - N/A   Overcast
11:55 PM 55.6 °F 55.6 °F 100% 29.92 in 10.0 mi SSE 3.5 mph - N/A   Overcast